Year,Month,Day,Hour,Minute,Value (Times are PST for windgust in km/hr)
2010,04,02,00,00,0.00
2010,04,02,00,01,1.60
2010,04,02,00,02,0.00
2010,04,02,00,03,1.60
2010,04,02,00,04,1.60
2010,04,02,00,05,9.60
2010,04,02,00,06,6.40
2010,04,02,00,07,3.20
2010,04,02,00,08,0.00
2010,04,02,00,09,1.60
2010,04,02,00,10,0.00
2010,04,02,00,11,0.00
2010,04,02,00,12,9.60
2010,04,02,00,13,6.40
2010,04,02,00,14,3.20
2010,04,02,00,15,9.60
2010,04,02,00,16,11.30
2010,04,02,00,17,8.10
2010,04,02,00,18,3.20
2010,04,02,00,19,4.80
2010,04,02,00,20,9.60
2010,04,02,00,21,14.50
2010,04,02,00,22,4.80
2010,04,02,00,23,1.60
2010,04,02,00,24,8.10
2010,04,02,00,25,8.10
2010,04,02,00,26,4.80
2010,04,02,00,27,4.80
2010,04,02,00,28,8.10
2010,04,02,00,29,1.60
2010,04,02,00,30,1.60
2010,04,02,00,31,4.80
2010,04,02,00,32,9.60
2010,04,02,00,33,1.60
2010,04,02,00,34,3.20
2010,04,02,00,35,1.60
2010,04,02,00,36,1.60
2010,04,02,00,37,6.40
2010,04,02,00,38,3.20
2010,04,02,00,39,6.40
2010,04,02,00,40,1.60
2010,04,02,00,41,1.60
2010,04,02,00,42,4.80
2010,04,02,00,43,4.80
2010,04,02,00,44,6.40
2010,04,02,00,45,4.80
2010,04,02,00,46,1.60
2010,04,02,00,47,1.60
2010,04,02,00,48,1.60
2010,04,02,00,49,11.30
2010,04,02,00,50,8.10
2010,04,02,00,51,8.10
2010,04,02,00,52,3.20
2010,04,02,00,53,3.20
2010,04,02,00,54,0.00
2010,04,02,00,55,1.60
2010,04,02,00,56,4.80
2010,04,02,00,57,0.00
2010,04,02,00,58,3.20
2010,04,02,00,59,1.60
2010,04,02,01,00,3.20
2010,04,02,01,01,3.20
2010,04,02,01,02,1.60
2010,04,02,01,03,0.00
2010,04,02,01,04,4.80
2010,04,02,01,05,0.00
2010,04,02,01,06,3.20
2010,04,02,01,07,3.20
2010,04,02,01,08,8.10
2010,04,02,01,09,8.10
2010,04,02,01,10,4.80
2010,04,02,01,11,1.60
2010,04,02,01,12,8.10
2010,04,02,01,13,4.80
2010,04,02,01,14,4.80
2010,04,02,01,15,3.20
2010,04,02,01,16,8.10
2010,04,02,01,17,11.30
2010,04,02,01,18,0.00
2010,04,02,01,19,1.60
2010,04,02,01,20,4.80
2010,04,02,01,21,4.80
2010,04,02,01,22,4.80
2010,04,02,01,23,8.10
2010,04,02,01,24,8.10
2010,04,02,01,25,8.10
2010,04,02,01,26,3.20
2010,04,02,01,27,1.60
2010,04,02,01,28,0.00
2010,04,02,01,29,8.10
2010,04,02,01,30,8.10
2010,04,02,01,31,6.40
2010,04,02,01,32,4.80
2010,04,02,01,33,8.10
2010,04,02,01,34,6.40
2010,04,02,01,35,6.40
2010,04,02,01,36,6.40
2010,04,02,01,37,4.80
2010,04,02,01,38,6.40
2010,04,02,01,39,6.40
2010,04,02,01,40,4.80
2010,04,02,01,41,8.10
2010,04,02,01,42,4.80
2010,04,02,01,43,6.40
2010,04,02,01,44,8.10
2010,04,02,01,45,3.20
2010,04,02,01,46,6.40
2010,04,02,01,47,6.40
2010,04,02,01,48,1.60
2010,04,02,01,49,0.00
2010,04,02,01,50,0.00
2010,04,02,01,51,8.10
2010,04,02,01,52,9.60
2010,04,02,01,53,6.40
2010,04,02,01,54,3.20
2010,04,02,01,55,1.60
2010,04,02,01,56,4.80
2010,04,02,01,57,4.80
2010,04,02,01,58,1.60
2010,04,02,01,59,0.00
2010,04,02,02,00,3.20
2010,04,02,02,01,6.40
2010,04,02,02,02,9.60
2010,04,02,02,03,1.60
2010,04,02,02,04,4.80
2010,04,02,02,05,6.40
2010,04,02,02,06,6.40
2010,04,02,02,07,9.60
2010,04,02,02,08,9.60
2010,04,02,02,09,6.40
2010,04,02,02,10,6.40
2010,04,02,02,11,6.40
2010,04,02,02,12,8.10
2010,04,02,02,13,11.30
2010,04,02,02,14,14.50
2010,04,02,02,15,11.30
2010,04,02,02,16,4.80
2010,04,02,02,17,17.70
2010,04,02,02,18,9.60
2010,04,02,02,19,8.10
2010,04,02,02,20,4.80
2010,04,02,02,21,8.10
2010,04,02,02,22,8.10
2010,04,02,02,23,8.10
2010,04,02,02,24,4.80
2010,04,02,02,25,16.10
2010,04,02,02,26,6.40
2010,04,02,02,27,16.10
2010,04,02,02,28,6.40
2010,04,02,02,29,12.90
2010,04,02,02,30,9.60
2010,04,02,02,31,16.10
2010,04,02,02,32,11.30
2010,04,02,02,33,11.30
2010,04,02,02,34,11.30
2010,04,02,02,35,3.20
2010,04,02,02,36,16.10
2010,04,02,02,37,9.60
2010,04,02,02,38,3.20
2010,04,02,02,39,1.60
2010,04,02,02,40,3.20
2010,04,02,02,41,4.80
2010,04,02,02,42,6.40
2010,04,02,02,43,9.60
2010,04,02,02,44,11.30
2010,04,02,02,45,11.30
2010,04,02,02,46,3.20
2010,04,02,02,47,14.50
2010,04,02,02,48,8.10
2010,04,02,02,49,8.10
2010,04,02,02,50,8.10
2010,04,02,02,51,19.30
2010,04,02,02,52,16.10
2010,04,02,02,53,3.20
2010,04,02,02,54,19.30
2010,04,02,02,55,8.10
2010,04,02,02,56,8.10
2010,04,02,02,57,6.40
2010,04,02,02,58,4.80
2010,04,02,02,59,9.60
2010,04,02,03,00,11.30
2010,04,02,03,01,16.10
2010,04,02,03,02,6.40
2010,04,02,03,03,4.80
2010,04,02,03,04,11.30
2010,04,02,03,05,16.10
2010,04,02,03,06,8.10
2010,04,02,03,07,8.10
2010,04,02,03,08,9.60
2010,04,02,03,09,6.40
2010,04,02,03,10,3.20
2010,04,02,03,11,4.80
2010,04,02,03,12,6.40
2010,04,02,03,13,3.20
2010,04,02,03,14,1.60
2010,04,02,03,15,6.40
2010,04,02,03,16,4.80
2010,04,02,03,17,4.80
2010,04,02,03,18,3.20
2010,04,02,03,19,6.40
2010,04,02,03,20,6.40
2010,04,02,03,21,8.10
2010,04,02,03,22,1.60
2010,04,02,03,23,1.60
2010,04,02,03,24,3.20
2010,04,02,03,25,1.60
2010,04,02,03,26,3.20
2010,04,02,03,27,0.00
2010,04,02,03,28,1.60
2010,04,02,03,29,4.80
2010,04,02,03,30,4.80
2010,04,02,03,31,0.00
2010,04,02,03,32,0.00
2010,04,02,03,33,1.60
2010,04,02,03,34,4.80
2010,04,02,03,35,3.20
2010,04,02,03,36,3.20
2010,04,02,03,37,3.20
2010,04,02,03,38,1.60
2010,04,02,03,39,1.60
2010,04,02,03,40,3.20
2010,04,02,03,41,1.60
2010,04,02,03,42,0.00
2010,04,02,03,43,0.00
2010,04,02,03,44,0.00
2010,04,02,03,45,0.00
2010,04,02,03,46,0.00
2010,04,02,03,47,3.20
2010,04,02,03,48,6.40
2010,04,02,03,49,6.40
2010,04,02,03,50,6.40
2010,04,02,03,51,4.80
2010,04,02,03,52,4.80
2010,04,02,03,53,3.20
2010,04,02,03,54,0.00
2010,04,02,03,55,1.60
2010,04,02,03,56,6.40
2010,04,02,03,57,9.60
2010,04,02,03,58,9.60
2010,04,02,03,59,11.30
2010,04,02,04,00,11.30
2010,04,02,04,01,9.60
2010,04,02,04,02,9.60
2010,04,02,04,03,11.30
2010,04,02,04,04,9.60
2010,04,02,04,05,9.60
2010,04,02,04,06,4.80
2010,04,02,04,07,6.40
2010,04,02,04,08,9.60
2010,04,02,04,09,9.60
2010,04,02,04,10,14.50
2010,04,02,04,11,9.60
2010,04,02,04,12,14.50
2010,04,02,04,13,11.30
2010,04,02,04,14,8.10
2010,04,02,04,15,6.40
2010,04,02,04,16,4.80
2010,04,02,04,17,6.40
2010,04,02,04,18,9.60
2010,04,02,04,19,6.40
2010,04,02,04,20,4.80
2010,04,02,04,21,9.60
2010,04,02,04,22,12.90
2010,04,02,04,23,11.30
2010,04,02,04,24,8.10
2010,04,02,04,25,4.80
2010,04,02,04,26,4.80
2010,04,02,04,27,16.10
2010,04,02,04,28,8.10
2010,04,02,04,29,6.40
2010,04,02,04,30,6.40
2010,04,02,04,31,6.40
2010,04,02,04,32,6.40
2010,04,02,04,33,3.20
2010,04,02,04,34,8.10
2010,04,02,04,35,9.60
2010,04,02,04,36,8.10
2010,04,02,04,37,8.10
2010,04,02,04,38,14.50
2010,04,02,04,39,9.60
2010,04,02,04,40,3.20
2010,04,02,04,41,8.10
2010,04,02,04,42,8.10
2010,04,02,04,43,4.80
2010,04,02,04,44,6.40
2010,04,02,04,45,8.10
2010,04,02,04,46,8.10
2010,04,02,04,47,3.20
2010,04,02,04,48,1.60
2010,04,02,04,49,4.80
2010,04,02,04,50,6.40
2010,04,02,04,51,3.20
2010,04,02,04,52,9.60
2010,04,02,04,53,8.10
2010,04,02,04,54,11.30
2010,04,02,04,55,14.50
2010,04,02,04,56,24.20
2010,04,02,04,57,19.30
2010,04,02,04,58,14.50
2010,04,02,04,59,14.50
2010,04,02,05,00,20.90
2010,04,02,05,01,25.70
2010,04,02,05,02,22.50
2010,04,02,05,03,17.70
2010,04,02,05,04,17.70
2010,04,02,05,05,24.20
2010,04,02,05,06,29.00
2010,04,02,05,07,20.90
2010,04,02,05,08,22.50
2010,04,02,05,09,24.20
2010,04,02,05,10,19.30
2010,04,02,05,11,16.10
2010,04,02,05,12,25.70
2010,04,02,05,13,19.30
2010,04,02,05,14,24.20
2010,04,02,05,15,17.70
2010,04,02,05,16,29.00
2010,04,02,05,17,20.90
2010,04,02,05,18,25.70
2010,04,02,05,19,16.10
2010,04,02,05,20,12.90
2010,04,02,05,21,41.80
2010,04,02,05,22,29.00
2010,04,02,05,23,30.60
2010,04,02,05,24,32.20
2010,04,02,05,25,22.50
2010,04,02,05,26,27.40
2010,04,02,05,27,27.40
2010,04,02,05,28,17.70
2010,04,02,05,29,25.70
2010,04,02,05,30,30.60
2010,04,02,05,31,24.20
2010,04,02,05,32,19.30
2010,04,02,05,33,24.20
2010,04,02,05,34,29.00
2010,04,02,05,35,19.30
2010,04,02,05,36,29.00
2010,04,02,05,37,29.00
2010,04,02,05,38,24.20
2010,04,02,05,39,29.00
2010,04,02,05,40,19.30
2010,04,02,05,41,29.00
2010,04,02,05,42,25.70
2010,04,02,05,43,24.20
2010,04,02,05,44,17.70
2010,04,02,05,45,19.30
2010,04,02,05,46,20.90
2010,04,02,05,47,17.70
2010,04,02,05,48,24.20
2010,04,02,05,49,24.20
2010,04,02,05,50,29.00
2010,04,02,05,51,24.20
2010,04,02,05,52,30.60
2010,04,02,05,53,24.20
2010,04,02,05,54,22.50
2010,04,02,05,55,33.80
2010,04,02,05,56,32.20
2010,04,02,05,57,19.30
2010,04,02,05,58,33.80
2010,04,02,05,59,22.50
2010,04,02,06,00,27.40
2010,04,02,06,01,38.60
2010,04,02,06,02,38.60
2010,04,02,06,03,30.60
2010,04,02,06,04,33.80
2010,04,02,06,05,38.60
2010,04,02,06,06,33.80
2010,04,02,06,07,22.50
2010,04,02,06,08,22.50
2010,04,02,06,09,27.40
2010,04,02,06,10,32.20
2010,04,02,06,11,27.40
2010,04,02,06,12,30.60
2010,04,02,06,13,33.80
2010,04,02,06,14,40.20
2010,04,02,06,15,32.20
2010,04,02,06,16,29.00
2010,04,02,06,17,46.70
2010,04,02,06,18,33.80
2010,04,02,06,19,37.00
2010,04,02,06,20,35.40
2010,04,02,06,21,37.00
2010,04,02,06,22,35.40
2010,04,02,06,23,41.80
2010,04,02,06,24,46.70
2010,04,02,06,25,45.10
2010,04,02,06,26,22.50
2010,04,02,06,27,45.10
2010,04,02,06,28,45.10
2010,04,02,06,29,40.20
2010,04,02,06,30,45.10
2010,04,02,06,31,33.80
2010,04,02,06,32,46.70
2010,04,02,06,33,45.10
2010,04,02,06,34,40.20
2010,04,02,06,35,51.50
2010,04,02,06,36,33.80
2010,04,02,06,37,38.60
2010,04,02,06,38,37.00
2010,04,02,06,39,59.50
2010,04,02,06,40,33.80
2010,04,02,06,41,40.20
2010,04,02,06,42,37.00
2010,04,02,06,43,53.10
2010,04,02,06,44,45.10
2010,04,02,06,45,40.20
2010,04,02,06,46,66.00
2010,04,02,06,47,40.20
2010,04,02,06,48,29.00
2010,04,02,06,49,35.40
2010,04,02,06,50,45.10
2010,04,02,06,51,41.80
2010,04,02,06,52,53.10
2010,04,02,06,53,43.50
2010,04,02,06,54,48.30
2010,04,02,06,55,40.20
2010,04,02,06,56,49.90
2010,04,02,06,57,35.40
2010,04,02,06,58,38.60
2010,04,02,06,59,35.40
2010,04,02,07,00,38.60
2010,04,02,07,01,53.10
2010,04,02,07,02,25.70
2010,04,02,07,03,49.90
2010,04,02,07,04,48.30
2010,04,02,07,05,53.10
2010,04,02,07,06,46.70
2010,04,02,07,07,41.80
2010,04,02,07,08,38.60
2010,04,02,07,09,37.00
2010,04,02,07,10,51.50
2010,04,02,07,11,38.60
2010,04,02,07,12,46.70
2010,04,02,07,13,49.90
2010,04,02,07,14,53.10
2010,04,02,07,15,40.20
2010,04,02,07,16,37.00
2010,04,02,07,17,46.70
2010,04,02,07,18,45.10
2010,04,02,07,19,59.50
2010,04,02,07,20,33.80
2010,04,02,07,21,32.20
2010,04,02,07,22,40.20
2010,04,02,07,23,53.10
2010,04,02,07,24,45.10
2010,04,02,07,25,40.20
2010,04,02,07,26,49.90
2010,04,02,07,27,29.00
2010,04,02,07,28,40.20
2010,04,02,07,29,33.80
2010,04,02,07,30,41.80
2010,04,02,07,31,43.50
2010,04,02,07,32,41.80
2010,04,02,07,33,53.10
2010,04,02,07,34,37.00
2010,04,02,07,35,37.00
2010,04,02,07,36,40.20
2010,04,02,07,37,45.10
2010,04,02,07,38,48.30
2010,04,02,07,39,38.60
2010,04,02,07,40,35.40
2010,04,02,07,41,53.10
2010,04,02,07,42,40.20
2010,04,02,07,43,30.60
2010,04,02,07,44,53.10
2010,04,02,07,45,56.30
2010,04,02,07,46,35.40
2010,04,02,07,47,53.10
2010,04,02,07,48,57.90
2010,04,02,07,49,46.70
2010,04,02,07,50,45.10
2010,04,02,07,51,49.90
2010,04,02,07,52,46.70
2010,04,02,07,53,37.00
2010,04,02,07,54,43.50
2010,04,02,07,55,37.00
2010,04,02,07,56,40.20
2010,04,02,07,57,53.10
2010,04,02,07,58,40.20
2010,04,02,07,59,32.20
2010,04,02,08,00,33.80
2010,04,02,08,01,43.50
2010,04,02,08,02,45.10
2010,04,02,08,03,30.60
2010,04,02,08,04,41.80
2010,04,02,08,05,33.80
2010,04,02,08,06,37.00
2010,04,02,08,07,40.20
2010,04,02,08,08,37.00
2010,04,02,08,09,54.70
2010,04,02,08,10,45.10
2010,04,02,08,11,32.20
2010,04,02,08,12,41.80
2010,04,02,08,13,37.00
2010,04,02,08,14,45.10
2010,04,02,08,15,30.60
2010,04,02,08,16,27.40
2010,04,02,08,17,27.40
2010,04,02,08,18,41.80
2010,04,02,08,19,41.80
2010,04,02,08,20,45.10
2010,04,02,08,21,27.40
2010,04,02,08,22,46.70
2010,04,02,08,23,32.20
2010,04,02,08,24,32.20
2010,04,02,08,25,41.80
2010,04,02,08,26,35.40
2010,04,02,08,27,40.20
2010,04,02,08,28,54.70
2010,04,02,08,29,53.10
2010,04,02,08,30,29.00
2010,04,02,08,31,40.20
2010,04,02,08,32,46.70
2010,04,02,08,33,37.00
2010,04,02,08,34,35.40
2010,04,02,08,35,27.40
2010,04,02,08,36,29.00
2010,04,02,08,37,38.60
2010,04,02,08,38,37.00
2010,04,02,08,39,48.30
2010,04,02,08,40,32.20
2010,04,02,08,41,38.60
2010,04,02,08,42,40.20
2010,04,02,08,43,41.80
2010,04,02,08,44,41.80
2010,04,02,08,45,20.90
2010,04,02,08,46,40.20
2010,04,02,08,47,33.80
2010,04,02,08,48,32.20
2010,04,02,08,49,48.30
2010,04,02,08,50,25.70
2010,04,02,08,51,33.80
2010,04,02,08,52,38.60
2010,04,02,08,53,32.20
2010,04,02,08,54,25.70
2010,04,02,08,55,35.40
2010,04,02,08,56,46.70
2010,04,02,08,57,35.40
2010,04,02,08,58,35.40
2010,04,02,08,59,38.60
2010,04,02,09,00,43.50
2010,04,02,09,01,24.20
2010,04,02,09,02,35.40
2010,04,02,09,03,29.00
2010,04,02,09,04,37.00
2010,04,02,09,05,45.10
2010,04,02,09,06,40.20
2010,04,02,09,07,25.70
2010,04,02,09,08,37.00
2010,04,02,09,09,48.30
2010,04,02,09,10,45.10
2010,04,02,09,11,32.20
2010,04,02,09,12,30.60
2010,04,02,09,13,29.00
2010,04,02,09,14,48.30
2010,04,02,09,15,40.20
2010,04,02,09,16,53.10
2010,04,02,09,17,48.30
2010,04,02,09,18,41.80
2010,04,02,09,19,53.10
2010,04,02,09,20,48.30
2010,04,02,09,21,30.60
2010,04,02,09,22,35.40
2010,04,02,09,23,33.80
2010,04,02,09,24,45.10
2010,04,02,09,25,43.50
2010,04,02,09,26,37.00
2010,04,02,09,27,32.20
2010,04,02,09,28,38.60
2010,04,02,09,29,22.50
2010,04,02,09,30,41.80
2010,04,02,09,31,46.70
2010,04,02,09,32,37.00
2010,04,02,09,33,35.40
2010,04,02,09,34,27.40
2010,04,02,09,35,22.50
2010,04,02,09,36,43.50
2010,04,02,09,37,27.40
2010,04,02,09,38,24.20
2010,04,02,09,39,27.40
2010,04,02,09,40,33.80
2010,04,02,09,41,32.20
2010,04,02,09,42,40.20
2010,04,02,09,43,32.20
2010,04,02,09,44,32.20
2010,04,02,09,45,27.40
2010,04,02,09,46,33.80
2010,04,02,09,47,30.60
2010,04,02,09,48,46.70
2010,04,02,09,49,38.60
2010,04,02,09,50,32.20
2010,04,02,09,51,40.20
2010,04,02,09,52,40.20
2010,04,02,09,53,46.70
2010,04,02,09,54,25.70
2010,04,02,09,55,14.50
2010,04,02,09,56,35.40
2010,04,02,09,57,46.70
2010,04,02,09,58,33.80
2010,04,02,09,59,27.40
2010,04,02,10,00,30.60
2010,04,02,10,01,40.20
2010,04,02,10,02,24.20
2010,04,02,10,03,33.80
2010,04,02,10,04,27.40
2010,04,02,10,05,27.40
2010,04,02,10,06,46.70
2010,04,02,10,07,48.30
2010,04,02,10,08,38.60
2010,04,02,10,09,29.00
2010,04,02,10,10,46.70
2010,04,02,10,11,40.20
2010,04,02,10,12,37.00
2010,04,02,10,13,41.80
2010,04,02,10,14,54.70
2010,04,02,10,15,61.20
2010,04,02,10,16,41.80
2010,04,02,10,17,49.90
2010,04,02,10,18,49.90
2010,04,02,10,19,49.90
2010,04,02,10,20,32.20
2010,04,02,10,21,33.80
2010,04,02,10,22,35.40
2010,04,02,10,23,43.50
2010,04,02,10,24,45.10
2010,04,02,10,25,48.30
2010,04,02,10,26,53.10
2010,04,02,10,27,43.50
2010,04,02,10,28,40.20
2010,04,02,10,29,66.00
2010,04,02,10,30,38.60
2010,04,02,10,31,49.90
2010,04,02,10,32,43.50
2010,04,02,10,33,27.40
2010,04,02,10,34,41.80
2010,04,02,10,35,48.30
2010,04,02,10,36,38.60
2010,04,02,10,37,27.40
2010,04,02,10,38,14.50
2010,04,02,10,39,46.70
2010,04,02,10,40,45.10
2010,04,02,10,41,53.10
2010,04,02,10,42,41.80
2010,04,02,10,43,46.70
2010,04,02,10,44,53.10
2010,04,02,10,45,46.70
2010,04,02,10,46,37.00
2010,04,02,10,47,51.50
2010,04,02,10,48,40.20
2010,04,02,10,49,17.70
2010,04,02,10,50,40.20
2010,04,02,10,51,53.10
2010,04,02,10,52,45.10
2010,04,02,10,53,35.40
2010,04,02,10,54,29.00
2010,04,02,10,55,43.50
2010,04,02,10,56,32.20
2010,04,02,10,57,38.60
2010,04,02,10,58,48.30
2010,04,02,10,59,27.40
2010,04,02,11,00,35.40
2010,04,02,11,01,37.00
2010,04,02,11,02,27.40
2010,04,02,11,03,22.50
2010,04,02,11,04,40.20
2010,04,02,11,05,32.20
2010,04,02,11,06,46.70
2010,04,02,11,07,30.60
2010,04,02,11,08,37.00
2010,04,02,11,09,49.90
2010,04,02,11,10,27.40
2010,04,02,11,11,33.80
2010,04,02,11,12,29.00
2010,04,02,11,13,45.10
2010,04,02,11,14,32.20
2010,04,02,11,15,45.10
2010,04,02,11,16,33.80
2010,04,02,11,17,43.50
2010,04,02,11,18,32.20
2010,04,02,11,19,53.10
2010,04,02,11,20,46.70
2010,04,02,11,21,46.70
2010,04,02,11,22,22.50
2010,04,02,11,23,25.70
2010,04,02,11,24,24.20
2010,04,02,11,25,25.70
2010,04,02,11,26,41.80
2010,04,02,11,27,45.10
2010,04,02,11,28,30.60
2010,04,02,11,29,38.60
2010,04,02,11,30,46.70
2010,04,02,11,31,33.80
2010,04,02,11,32,43.50
2010,04,02,11,33,49.90
2010,04,02,11,34,22.50
2010,04,02,11,35,49.90
2010,04,02,11,36,24.20
2010,04,02,11,37,35.40
2010,04,02,11,38,30.60
2010,04,02,11,39,41.80
2010,04,02,11,40,48.30
2010,04,02,11,41,37.00
2010,04,02,11,42,45.10
2010,04,02,11,43,30.60
2010,04,02,11,44,33.80
2010,04,02,11,45,17.70
2010,04,02,11,46,25.70
2010,04,02,11,47,41.80
2010,04,02,11,48,45.10
2010,04,02,11,49,32.20
2010,04,02,11,50,29.00
2010,04,02,11,51,38.60
2010,04,02,11,52,37.00
2010,04,02,11,53,25.70
2010,04,02,11,54,32.20
2010,04,02,11,55,37.00
2010,04,02,11,56,41.80
2010,04,02,11,57,35.40
2010,04,02,11,58,32.20
2010,04,02,11,59,27.40
2010,04,02,12,00,40.20
2010,04,02,12,01,35.40
2010,04,02,12,02,29.00
2010,04,02,12,03,27.40
2010,04,02,12,04,20.90
2010,04,02,12,05,27.40
2010,04,02,12,06,48.30
2010,04,02,12,07,32.20
2010,04,02,12,08,32.20
2010,04,02,12,09,40.20
2010,04,02,12,10,38.60
2010,04,02,12,11,37.00
2010,04,02,12,12,33.80
2010,04,02,12,13,25.70
2010,04,02,12,14,22.50
2010,04,02,12,15,17.70
2010,04,02,12,16,35.40
2010,04,02,12,17,25.70
2010,04,02,12,18,29.00
2010,04,02,12,19,29.00
2010,04,02,12,20,27.40
2010,04,02,12,21,24.20
2010,04,02,12,22,20.90
2010,04,02,12,23,35.40
2010,04,02,12,24,25.70
2010,04,02,12,25,24.20
2010,04,02,12,26,32.20
2010,04,02,12,27,24.20
2010,04,02,12,28,29.00
2010,04,02,12,29,30.60
2010,04,02,12,30,33.80
2010,04,02,12,31,29.00
2010,04,02,12,32,25.70
2010,04,02,12,33,35.40
2010,04,02,12,34,25.70
2010,04,02,12,35,32.20
2010,04,02,12,36,24.20
2010,04,02,12,37,29.00
2010,04,02,12,38,25.70
2010,04,02,12,39,24.20
2010,04,02,12,40,38.60
2010,04,02,12,41,35.40
2010,04,02,12,42,30.60
2010,04,02,12,43,25.70
2010,04,02,12,44,20.90
2010,04,02,12,45,22.50
2010,04,02,12,46,25.70
2010,04,02,12,47,19.30
2010,04,02,12,48,8.10
2010,04,02,12,49,22.50
2010,04,02,12,50,29.00
2010,04,02,12,51,29.00
2010,04,02,12,52,25.70
2010,04,02,12,53,25.70
2010,04,02,12,54,32.20
2010,04,02,12,55,32.20
2010,04,02,12,56,16.10
2010,04,02,12,57,27.40
2010,04,02,12,58,30.60
2010,04,02,12,59,22.50
2010,04,02,13,00,25.70
2010,04,02,13,01,20.90
2010,04,02,13,02,27.40
2010,04,02,13,03,22.50
2010,04,02,13,04,24.20
2010,04,02,13,05,24.20
2010,04,02,13,06,22.50
2010,04,02,13,07,35.40
2010,04,02,13,08,32.20
2010,04,02,13,09,19.30
2010,04,02,13,10,20.90
2010,04,02,13,11,27.40
2010,04,02,13,12,22.50
2010,04,02,13,13,16.10
2010,04,02,13,14,30.60
2010,04,02,13,15,27.40
2010,04,02,13,16,33.80
2010,04,02,13,17,38.60
2010,04,02,13,18,20.90
2010,04,02,13,19,25.70
2010,04,02,13,20,14.50
2010,04,02,13,21,27.40
2010,04,02,13,22,24.20
2010,04,02,13,23,25.70
2010,04,02,13,24,33.80
2010,04,02,13,25,38.60
2010,04,02,13,26,33.80
2010,04,02,13,27,27.40
2010,04,02,13,28,40.20
2010,04,02,13,29,30.60
2010,04,02,13,30,41.80
2010,04,02,13,31,38.60
2010,04,02,13,32,17.70
2010,04,02,13,33,11.30
2010,04,02,13,34,22.50
2010,04,02,13,35,22.50
2010,04,02,13,36,22.50
2010,04,02,13,37,12.90
2010,04,02,13,38,27.40
2010,04,02,13,39,25.70
2010,04,02,13,40,33.80
2010,04,02,13,41,33.80
2010,04,02,13,42,25.70
2010,04,02,13,43,32.20
2010,04,02,13,44,19.30
2010,04,02,13,45,19.30
2010,04,02,13,46,19.30
2010,04,02,13,47,27.40
2010,04,02,13,48,27.40
2010,04,02,13,49,33.80
2010,04,02,13,50,37.00
2010,04,02,13,51,32.20
2010,04,02,13,52,14.50
2010,04,02,13,53,22.50
2010,04,02,13,54,35.40
2010,04,02,13,55,30.60
2010,04,02,13,56,24.20
2010,04,02,13,57,29.00
2010,04,02,13,58,24.20
2010,04,02,13,59,24.20
2010,04,02,14,00,25.70
2010,04,02,14,01,20.90
2010,04,02,14,02,22.50
2010,04,02,14,03,22.50
2010,04,02,14,04,20.90
2010,04,02,14,05,19.30
2010,04,02,14,06,20.90
2010,04,02,14,07,11.30
2010,04,02,14,08,22.50
2010,04,02,14,09,19.30
2010,04,02,14,10,12.90
2010,04,02,14,11,22.50
2010,04,02,14,12,24.20
2010,04,02,14,13,17.70
2010,04,02,14,14,19.30
2010,04,02,14,15,17.70
2010,04,02,14,16,24.20
2010,04,02,14,17,19.30
2010,04,02,14,18,11.30
2010,04,02,14,19,16.10
2010,04,02,14,20,22.50
2010,04,02,14,21,17.70
2010,04,02,14,22,17.70
2010,04,02,14,23,8.10
2010,04,02,14,24,16.10
2010,04,02,14,25,11.30
2010,04,02,14,26,6.40
2010,04,02,14,27,22.50
2010,04,02,14,28,19.30
2010,04,02,14,29,24.20
2010,04,02,14,30,14.50
2010,04,02,14,31,6.40
2010,04,02,14,32,17.70
2010,04,02,14,33,14.50
2010,04,02,14,34,17.70
2010,04,02,14,35,14.50
2010,04,02,14,36,19.30
2010,04,02,14,37,24.20
2010,04,02,14,38,16.10
2010,04,02,14,39,16.10
2010,04,02,14,40,22.50
2010,04,02,14,41,19.30
2010,04,02,14,42,11.30
2010,04,02,14,43,12.90
2010,04,02,14,44,20.90
2010,04,02,14,45,19.30
2010,04,02,14,46,19.30
2010,04,02,14,47,22.50
2010,04,02,14,48,22.50
2010,04,02,14,49,8.10
2010,04,02,14,50,19.30
2010,04,02,14,51,30.60
2010,04,02,14,52,29.00
2010,04,02,14,53,25.70
2010,04,02,14,54,14.50
2010,04,02,14,55,8.10
2010,04,02,14,56,11.30
2010,04,02,14,57,6.40
2010,04,02,14,58,20.90
2010,04,02,14,59,22.50
2010,04,02,15,00,9.60
2010,04,02,15,01,19.30
2010,04,02,15,02,12.90
2010,04,02,15,03,11.30
2010,04,02,15,04,24.20
2010,04,02,15,05,14.50
2010,04,02,15,06,19.30
2010,04,02,15,07,24.20
2010,04,02,15,08,16.10
2010,04,02,15,09,24.20
2010,04,02,15,10,14.50
2010,04,02,15,11,25.70
2010,04,02,15,12,17.70
2010,04,02,15,13,24.20
2010,04,02,15,14,19.30
2010,04,02,15,15,24.20
2010,04,02,15,16,16.10
2010,04,02,15,17,16.10
2010,04,02,15,18,20.90
2010,04,02,15,19,17.70
2010,04,02,15,20,25.70
2010,04,02,15,21,16.10
2010,04,02,15,22,14.50
2010,04,02,15,23,12.90
2010,04,02,15,24,22.50
2010,04,02,15,25,24.20
2010,04,02,15,26,27.40
2010,04,02,15,27,20.90
2010,04,02,15,28,20.90
2010,04,02,15,29,19.30
2010,04,02,15,30,29.00
2010,04,02,15,31,17.70
2010,04,02,15,32,25.70
2010,04,02,15,33,19.30
2010,04,02,15,34,11.30
2010,04,02,15,35,11.30
2010,04,02,15,36,12.90
2010,04,02,15,37,9.60
2010,04,02,15,38,14.50
2010,04,02,15,39,19.30
2010,04,02,15,40,16.10
2010,04,02,15,41,12.90
2010,04,02,15,42,14.50
2010,04,02,15,43,9.60
2010,04,02,15,44,8.10
2010,04,02,15,45,17.70
2010,04,02,15,46,16.10
2010,04,02,15,47,16.10
2010,04,02,15,48,17.70
2010,04,02,15,49,8.10
2010,04,02,15,50,9.60
2010,04,02,15,51,11.30
2010,04,02,15,52,16.10
2010,04,02,15,53,6.40
2010,04,02,15,54,16.10
2010,04,02,15,55,8.10
2010,04,02,15,56,20.90
2010,04,02,15,57,25.70
2010,04,02,15,58,17.70
2010,04,02,15,59,4.80
2010,04,02,16,00,11.30
2010,04,02,16,01,9.60
2010,04,02,16,02,17.70
2010,04,02,16,03,24.20
2010,04,02,16,04,22.50
2010,04,02,16,05,19.30
2010,04,02,16,06,19.30
2010,04,02,16,07,17.70
2010,04,02,16,08,11.30
2010,04,02,16,09,22.50
2010,04,02,16,10,30.60
2010,04,02,16,11,8.10
2010,04,02,16,12,8.10
2010,04,02,16,13,27.40
2010,04,02,16,14,16.10
2010,04,02,16,15,30.60
2010,04,02,16,16,16.10
2010,04,02,16,17,20.90
2010,04,02,16,18,6.40
2010,04,02,16,19,17.70
2010,04,02,16,20,6.40
2010,04,02,16,21,14.50
2010,04,02,16,22,4.80
2010,04,02,16,23,9.60
2010,04,02,16,24,17.70
2010,04,02,16,25,8.10
2010,04,02,16,26,9.60
2010,04,02,16,27,6.40
2010,04,02,16,28,12.90
2010,04,02,16,29,16.10
2010,04,02,16,30,16.10
2010,04,02,16,31,20.90
2010,04,02,16,32,20.90
2010,04,02,16,33,14.50
2010,04,02,16,34,8.10
2010,04,02,16,35,9.60
2010,04,02,16,36,20.90
2010,04,02,16,37,16.10
2010,04,02,16,38,11.30
2010,04,02,16,39,16.10
2010,04,02,16,40,6.40
2010,04,02,16,41,4.80
2010,04,02,16,42,16.10
2010,04,02,16,43,14.50
2010,04,02,16,44,9.60
2010,04,02,16,45,22.50
2010,04,02,16,46,20.90
2010,04,02,16,47,27.40
2010,04,02,16,48,30.60
2010,04,02,16,49,30.60
2010,04,02,16,50,24.20
2010,04,02,16,51,22.50
2010,04,02,16,52,16.10
2010,04,02,16,53,16.10
2010,04,02,16,54,8.10
2010,04,02,16,55,17.70
2010,04,02,16,56,24.20
2010,04,02,16,57,14.50
2010,04,02,16,58,9.60
2010,04,02,16,59,6.40
2010,04,02,17,00,17.70
2010,04,02,17,01,20.90
2010,04,02,17,02,11.30
2010,04,02,17,03,11.30
2010,04,02,17,04,19.30
2010,04,02,17,05,14.50
2010,04,02,17,06,11.30
2010,04,02,17,07,20.90
2010,04,02,17,08,8.10
2010,04,02,17,09,24.20
2010,04,02,17,10,16.10
2010,04,02,17,11,19.30
2010,04,02,17,12,17.70
2010,04,02,17,13,29.00
2010,04,02,17,14,17.70
2010,04,02,17,15,8.10
2010,04,02,17,16,17.70
2010,04,02,17,17,6.40
2010,04,02,17,18,19.30
2010,04,02,17,19,14.50
2010,04,02,17,20,22.50
2010,04,02,17,21,22.50
2010,04,02,17,22,16.10
2010,04,02,17,23,17.70
2010,04,02,17,24,17.70
2010,04,02,17,25,22.50
2010,04,02,17,26,17.70
2010,04,02,17,27,16.10
2010,04,02,17,28,9.60
2010,04,02,17,29,17.70
2010,04,02,17,30,16.10
2010,04,02,17,31,17.70
2010,04,02,17,32,29.00